Weather History for Menominee, MI

Change the Weather History Date:

Monday, January 21, 2013

  Actual Average Record
Temperature  
Mean Temperature -4 °F -  
Max Temperature 1 °F 28 °F 48 °F (1964)
Min Temperature -9 °F 10 °F -23 °F (1984)
Degree Days  
Heating Degree Days 69    
Moisture  
Dew Point -15 °F    
Average Humidity 58    
Maximum Humidity 72    
Minimum Humidity 42    
Precipitation  
Precipitation 0.00 in - - ()
Sea Level Pressure  
Sea Level Pressure 30.10 in    
Wind  
Wind Speed 9 mph (WNW)    
Max Wind Speed 14 mph    
Max Gust Speed 25 mph    
Visibility 10 miles    
Events      
Averages and records for this station are not official NWS values.
T = Trace of Precipitation, MM = Missing Value Source: NWS Daily Summary

Daily Weather History Graph

Daily Weather History Graph

Search for Another Location

Airport:

Trip Planner

Search our weather history database for the weather conditions in past years. The results will help you decide how hot, cold, wet, or windy it might be!

Date:

Astronomy

Jan. 21, 2013 Rise Set
Actual Time 7:21 AM CST 4:43 PM CST
Civil Twilight 6:49 AM CST 5:15 PM CST
Nautical Twilight 6:13 AM CST 5:51 PM CST
Astronomical Twilight 5:38 AM CST 6:26 PM CST
Moon 12:21 PM CST (1/21) 2:49 AM CST (1/21)
Length of Visible Light 10h 26m
Length of Day
9h 21m
Waxing Gibbous, 75% of the Moon is Illuminated
Jan 21
Waxing Gibbous
Jan 26
Full
Feb 3
Last Quarter
Feb 10
New
Feb 17
First Quarter

Hourly Weather History & Observations

Time (CST) Temp. Windchill Dew Point Humidity Pressure Visibility Wind Dir Wind Speed Gust Speed Precip Events Conditions
12:15 AM 1.4 °F -9.9 °F -7.6 °F 66% 30.11 in 10.0 mi West 5.8 mph - N/A   Clear
12:35 AM 1.4 °F -11.3 °F -7.6 °F 66% 30.10 in 10.0 mi WNW 6.9 mph - N/A   Mostly Cloudy
12:55 AM 1.4 °F -12.5 °F -7.6 °F 66% 30.09 in 10.0 mi WNW 8.1 mph - N/A   Overcast
1:15 AM 1.4 °F -12.5 °F -7.6 °F 66% 30.09 in 10.0 mi WNW 8.1 mph - N/A   Overcast
1:35 AM 1.4 °F -13.5 °F -7.6 °F 66% 30.09 in 10.0 mi WNW 9.2 mph - N/A   Mostly Cloudy
1:55 AM 1.4 °F -11.3 °F -7.6 °F 66% 30.08 in 10.0 mi WNW 6.9 mph - N/A   Overcast
2:15 AM 1.4 °F -11.3 °F -7.6 °F 66% 30.08 in 10.0 mi WNW 6.9 mph - N/A   Scattered Clouds
2:35 AM -0.4 °F -12.0 °F -7.6 °F 72% 30.07 in 10.0 mi West 5.8 mph - N/A   Scattered Clouds
2:55 AM -0.4 °F -12.0 °F -9.4 °F 66% 30.07 in 10.0 mi WNW 5.8 mph - N/A   Overcast
3:15 AM -0.4 °F -14.7 °F -7.6 °F 72% 30.06 in 10.0 mi WNW 8.1 mph - N/A   Overcast
3:35 AM -0.4 °F -12.0 °F -7.6 °F 72% 30.05 in 10.0 mi WNW 5.8 mph - N/A   Overcast
3:55 AM -0.4 °F -14.7 °F -7.6 °F 72% 30.05 in 10.0 mi WNW 8.1 mph - N/A   Overcast
4:15 AM -0.4 °F -14.7 °F -11.2 °F 60% 30.05 in 10.0 mi WNW 8.1 mph - N/A   Overcast
4:55 AM -0.4 °F -16.7 °F -7.6 °F 72% 30.05 in 10.0 mi WNW 10.4 mph 17.3 mph N/A   Overcast
5:15 AM -0.4 °F -14.7 °F -9.4 °F 66% 30.04 in 10.0 mi WNW 8.1 mph 16.1 mph N/A   Overcast
5:35 AM -0.4 °F -13.4 °F -9.4 °F 66% 30.04 in 10.0 mi WNW 6.9 mph - N/A   Overcast
5:55 AM -2.2 °F -19.9 °F -9.4 °F 71% 30.04 in 10.0 mi West 11.5 mph - N/A   Mostly Cloudy
6:15 AM -2.2 °F -16.8 °F -9.4 °F 71% 30.04 in 10.0 mi WNW 8.1 mph - N/A   Partly Cloudy
6:35 AM -2.2 °F -15.6 °F -11.2 °F 66% 30.05 in 10.0 mi WNW 6.9 mph - N/A   Partly Cloudy
6:55 AM -2.2 °F -15.6 °F -11.2 °F 66% 30.05 in 10.0 mi WNW 6.9 mph - N/A   Mostly Cloudy
7:15 AM -2.2 °F -15.6 °F -9.4 °F 71% 30.05 in 10.0 mi WNW 6.9 mph - N/A   Mostly Cloudy
7:35 AM -2.2 °F -14.2 °F -11.2 °F 66% 30.05 in 10.0 mi WNW 5.8 mph - N/A   Mostly Cloudy
7:55 AM -4.0 °F -19.0 °F -11.2 °F 71% 30.05 in 10.0 mi WNW 8.1 mph - N/A   Partly Cloudy
8:15 AM -2.2 °F -18.0 °F -11.2 °F 66% 30.06 in 10.0 mi WNW 9.2 mph - N/A   Clear
8:35 AM -2.2 °F -18.9 °F -11.2 °F 66% 30.06 in 10.0 mi WNW 10.4 mph 16.1 mph N/A   Partly Cloudy
8:55 AM -2.2 °F -20.7 °F -9.4 °F 71% 30.07 in 10.0 mi WNW 12.7 mph 18.4 mph N/A   Partly Cloudy
9:15 AM -2.2 °F -16.8 °F -11.2 °F 66% 30.07 in 10.0 mi WNW 8.1 mph 20.7 mph N/A   Clear
9:35 AM -2.2 °F -20.7 °F -13.0 °F 60% 30.07 in 10.0 mi WNW 12.7 mph 23.0 mph N/A   Clear
9:55 AM -2.2 °F -18.9 °F -13.0 °F 60% 30.08 in 10.0 mi WNW 10.4 mph 19.6 mph N/A   Clear
10:15 AM -2.2 °F -20.7 °F -14.8 °F 55% 30.08 in 10.0 mi WNW 12.7 mph 19.6 mph N/A   Clear
10:35 AM -0.4 °F -18.4 °F -14.8 °F 51% 30.08 in 10.0 mi NW 12.7 mph 20.7 mph N/A   Clear
10:55 AM -0.4 °F -16.7 °F -13.0 °F 55% 30.08 in 10.0 mi WNW 10.4 mph 18.4 mph N/A   Clear
11:15 AM -0.4 °F -17.6 °F -14.8 °F 51% 30.07 in 10.0 mi NW 11.5 mph 20.7 mph N/A   Clear
11:35 AM -0.4 °F -18.4 °F -11.2 °F 60% 30.07 in 10.0 mi NW 12.7 mph 18.4 mph N/A   Clear
11:55 AM -0.4 °F -16.7 °F -14.8 °F 51% 30.06 in 10.0 mi NW 10.4 mph 19.6 mph N/A   Clear
12:15 PM -0.4 °F -14.7 °F -16.6 °F 46% 30.06 in 10.0 mi NW 8.1 mph 19.6 mph N/A   Clear
12:35 PM -0.4 °F -17.6 °F -14.8 °F 51% 30.05 in 10.0 mi NW 11.5 mph 18.4 mph N/A   Clear
12:55 PM -0.4 °F -19.2 °F -16.6 °F 46% 30.05 in 10.0 mi NW 13.8 mph 21.9 mph N/A   Clear
1:15 PM -0.4 °F -17.6 °F -16.6 °F 46% 30.05 in 10.0 mi WNW 11.5 mph 21.9 mph N/A   Clear
1:35 PM -0.4 °F -18.4 °F -14.8 °F 51% 30.05 in 10.0 mi WNW 12.7 mph 20.7 mph N/A   Clear
1:55 PM -0.4 °F -15.7 °F -16.6 °F 46% 30.05 in 10.0 mi NW 9.2 mph 18.4 mph N/A   Clear
2:15 PM -0.4 °F -16.7 °F -18.4 °F 43% 30.06 in 10.0 mi NW 10.4 mph 20.7 mph N/A   Clear
2:35 PM -0.4 °F -17.6 °F -18.4 °F 43% 30.06 in 10.0 mi NW 11.5 mph 21.9 mph N/A   Clear
2:55 PM -0.4 °F -18.4 °F -18.4 °F 43% 30.07 in 10.0 mi NNW 12.7 mph 18.4 mph N/A   Clear
3:15 PM -0.4 °F -18.4 °F -18.4 °F 43% 30.08 in 10.0 mi NNW 12.7 mph 19.6 mph N/A   Clear
3:35 PM -2.2 °F -19.9 °F -20.2 °F 42% 30.08 in 10.0 mi NW 11.5 mph 25.3 mph N/A   Clear
3:55 PM -2.2 °F -20.7 °F -20.2 °F 42% 30.09 in 10.0 mi WNW 12.7 mph 20.7 mph N/A   Clear
4:15 PM -4.0 °F -22.1 °F -22.0 °F 42% 30.10 in 10.0 mi NNW 11.5 mph 18.4 mph N/A   Partly Cloudy
4:35 PM -4.0 °F -19.0 °F -22.0 °F 42% 30.11 in 10.0 mi NW 8.1 mph - N/A   Mostly Cloudy
4:55 PM -5.8 °F -19.9 °F -22.0 °F 46% 30.12 in 10.0 mi NW 6.9 mph 17.3 mph N/A   Scattered Clouds
5:15 PM -5.8 °F -25.2 °F -22.0 °F 46% 30.13 in 10.0 mi NW 12.7 mph 17.3 mph N/A   Mostly Cloudy
5:35 PM -5.8 °F -25.2 °F -23.8 °F 42% 30.14 in 10.0 mi WNW 12.7 mph 19.6 mph N/A   Partly Cloudy
5:55 PM -7.6 °F -26.6 °F -23.8 °F 45% 30.15 in 10.0 mi NW 11.5 mph 17.3 mph N/A   Mostly Cloudy
6:15 PM -7.6 °F -26.6 °F -23.8 °F 45% 30.15 in 10.0 mi NW 11.5 mph 19.6 mph N/A   Mostly Cloudy
6:55 PM -7.6 °F -24.6 °F -23.8 °F 45% 30.16 in 10.0 mi NW 9.2 mph 17.3 mph N/A   Clear
7:15 PM -7.6 °F -24.6 °F -22.0 °F 50% 30.17 in 10.0 mi WNW 9.2 mph - N/A   Partly Cloudy
7:35 PM -7.6 °F -23.4 °F -23.8 °F 45% 30.17 in 10.0 mi WNW 8.1 mph - N/A   Mostly Cloudy
7:55 PM -7.6 °F -23.4 °F -22.0 °F 50% 30.17 in 10.0 mi WNW 8.1 mph - N/A   Overcast
8:15 PM -7.6 °F -23.4 °F -20.2 °F 54% 30.17 in 10.0 mi WNW 8.1 mph - N/A   Mostly Cloudy
8:35 PM -7.6 °F -24.6 °F -20.2 °F 54% 30.17 in 10.0 mi WNW 9.2 mph 17.3 mph N/A   Partly Cloudy
8:55 PM -7.6 °F -25.7 °F -20.2 °F 54% 30.18 in 10.0 mi WNW 10.4 mph - N/A   Partly Cloudy
9:15 PM -7.6 °F -25.7 °F -20.2 °F 54% 30.18 in 10.0 mi WNW 10.4 mph 18.4 mph N/A   Mostly Cloudy
9:35 PM -7.6 °F -22.1 °F -18.4 °F 59% 30.18 in 10.0 mi WNW 6.9 mph - N/A   Mostly Cloudy
9:55 PM -9.4 °F -25.6 °F -20.2 °F 59% 30.18 in 10.0 mi WNW 8.1 mph - N/A   Mostly Cloudy
10:15 PM -9.4 °F -26.8 °F -20.2 °F 59% 30.18 in 10.0 mi WNW 9.2 mph - N/A   Partly Cloudy
10:35 PM -9.4 °F -22.7 °F -20.2 °F 59% 30.18 in 10.0 mi WNW 5.8 mph - N/A   Clear
10:55 PM -9.4 °F -27.9 °F -18.4 °F 65% 30.18 in 10.0 mi WNW 10.4 mph 16.1 mph N/A   Clear
11:15 PM -9.4 °F -20.9 °F -18.4 °F 65% 30.19 in 10.0 mi WNW 4.6 mph - N/A   Clear
11:35 PM -9.4 °F -24.3 °F -18.4 °F 65% 30.19 in 10.0 mi WNW 6.9 mph - N/A   Clear
11:55 PM -9.4 °F -22.7 °F -18.4 °F 65% 30.18 in 10.0 mi WNW 5.8 mph - N/A   Clear